COSMOS 2251 DEB, 34756

Orbit data source: Space-Track

COSMOS 2251 DEB, 34756 is space debris in LEO originally from a launch on Wed, 16 Jun 1993 UTC launched from the Plesetsk Missile And Space Complex (PKMTR). The debris from Iridium 33, an American commercial communications satellite, has been tracked extensively since its accidental collision with the defunct Russian satellite Cosmos 2251 in 2009. This event, occurring at high speed in low Earth orbit (LEO), generated thousands of pieces of space debris, significantly increasing the risk of further collisions. The Iridium 33 debris cloud has impacted space traffic management and orbital debris mitigation strategies, making it a subject of ongoing study in space situational awareness.

Loading next visibility...
Identifier
34756, 1993-036AAA
Orbit
LEO
Country
Flag of CISCIS
Related business
Manufacturer
Unknown
Mission
Spacecraft
Bus & Motor
Unknown
Mass
Unknown
Launch date (UTC)
1993-06-16 (33 years ago)
Launch vehicle
Unknown
Launch site
Plesetsk Missile And Space Complex (PKMTR)
Object type
Payload
Rocket body
Debris
Shape & HBR
Unknown shape, 0.1 m
Radar Cross Section
Small (<0.1 m²)

Expand to show TLE details & history
Last TLE update: 8 hours ago

TLE from 8 hours ago
0 COSMOS 2251 DEB
1 34756U 93036AAA 26123.05000044  .00000805  00000-0  64917-3 0  9996
2 34756  74.0027 231.8878 0342802  78.2371 285.6982 13.67648998853536
Epoch: 2026-05-03T01:12Z
TLE epoch observation values (Epoch: 2026-05-03T01:12:00.038Z)
Latitude
-0.00003°
Longitude
-7.07149°
Altitude
950.185 km
Speed
7.407 km/s
True Right ascension
15h 27m 33s
True Declination
0° 00' 00"
Sunlit
Object was in full shadow at epoch
Visualization orbit readout
Latitude
Unknown
Longitude
Unknown
Altitude
Unknown
Speed
Unknown
Apparent Right ascension
Unknown
Apparent Declination
Unknown
Sunlit
N/A
Visualization observer readout
Local Sidereal Time
17:12:03
Azimuth
Unknown
Elevation
Unknown
Doppler factor
Unknown
Orbital elements
Apogee altitude
1,258.843 km
Perigee altitude
752.602 km
Semi-major axis
7,383.859 km
Eccentricity
0.03428
Inclination
74.0027°
RAAN
231.8878°
Arg. of periapsis
78.2371°
True anomaly
281.87501°
Mean anomaly
285.6982°
Eccentric anomaly
283.79071°
Mean motion
3.42072 °/min
Orbital period
105.24 mins
BSTAR
0.00064917
Loading maneuver chart data...
Computing Atmospheric mass density...
Loading historical data...
Loading historical data...
Loading historical data...
Loading historical data...
Loading historical data...
Loading historical data...
Loading historical data...

Documentation

Showing up to 5 results
|